This is the latest recevied weather packets stored in our database for station/object EW2905. If no packets are shown the sender has not sent any weather packets the latest 10 day(s).
| Time | Temp. | Humidity | Pressure | Rain* | Wind** | Luminosity | Snow |
|---|---|---|---|---|---|---|---|
| 1777733675 | 23.89° C | 28% | 1021.2 hPa | 0 mm | - | - | - |
| 1777733496 | 23.89° C | 26% | 1021.2 hPa | 0 mm | - | - | - |
| 1777733316 | 24.44° C | 27% | 1021.2 hPa | 0 mm | - | - | - |
| 1777732955 | 25° C | 25% | 1021.2 hPa | 0 mm | - | - | - |
| 1777732776 | 25° C | 25% | 1021.2 hPa | 0 mm | - | - | - |
| 1777732596 | 24.44° C | 25% | 1021.2 hPa | 0 mm | - | - | - |
| 1777732416 | 23.89° C | 26% | 1021.2 hPa | 0 mm | - | - | - |
| 1777732236 | 23.89° C | 27% | 1021.2 hPa | 0 mm | - | - | - |
| 1777732056 | 23.33° C | 27% | 1021.2 hPa | 0 mm | - | - | - |
| 1777731876 | 22.78° C | 28% | 1021.2 hPa | 0 mm | - | - | - |
| 1777731696 | 23.89° C | 26% | 1021.2 hPa | 0 mm | - | - | - |
| 1777731516 | 23.89° C | 26% | 1021.2 hPa | 0 mm | - | - | - |
| 1777731335 | 23.89° C | 26% | 1021.2 hPa | 0 mm | - | - | - |
| 1777731155 | 23.89° C | 25% | 1021.2 hPa | 0 mm | - | - | - |
| 1777730976 | 25.56° C | 24% | 1021.2 hPa | 0 mm | - | - | - |
| 1777730796 | 26.11° C | 23% | 1023.1 hPa | 0 mm | - | - | - |
| 1777730616 | 25.56° C | 22% | 1023.1 hPa | 0 mm | - | - | - |
| 1777730436 | 26.11° C | 25% | 1023.1 hPa | 0 mm | - | - | - |
| 1777730254 | 26.11° C | 22% | 1023.1 hPa | 0 mm | - | - | - |
| 1777730075 | 27.22° C | 23% | 1023.1 hPa | 0 mm | - | - | - |
| 1777729894 | 27.22° C | 21% | 1023.1 hPa | 0 mm | - | - | - |
| 1777729714 | 26.67° C | 22% | 1023.1 hPa | 0 mm | - | - | - |
| 1777729534 | 26.11° C | 22% | 1023.1 hPa | 0 mm | - | - | - |
| 1777729355 | 25.56° C | 22% | 1023.1 hPa | 0 mm | - | - | - |
| 1777729175 | 25° C | 24% | 1023.1 hPa | 0 mm | - | - | - |
* Rain latest hour (hover to see other rain measurements)
** Current wind speed in m/s (hover to see current wind gust speed)